| time (UTC) | temp F | wind direction | speed knots | gust knots | rain 1hr in | rain 24hr in | rain mn in | humidity % | barometer mb |
| 20260505231003 | 88 | 292 | 2.6 | 4.3 | 0.00 | 0.00 | 0.00 | 49 | 1006.6 |
| 20260505230448 | 89 | 270 | 2.6 | 5.2 | 0.00 | 0.00 | 0.00 | 47 | 1006.6 |
| 20260505225944 | 90 | 270 | 3.5 | 5.2 | 0.00 | 0.00 | 0.00 | 48 | 1006.5 |
| 20260505225406 | 91 | 270 | 0.9 | 1.7 | 0.00 | 0.00 | 0.00 | 56 | 1006.5 |
| 20260505224900 | 91 | 202 | 0.0 | 2.6 | 0.00 | 0.00 | 0.00 | 56 | 1006.5 |
| 20260505224347 | 90 | 180 | 0.9 | 4.3 | 0.00 | 0.00 | 0.00 | 56 | 1006.4 |
| 20260505223831 | 90 | 248 | 2.6 | 4.3 | 0.00 | 0.00 | 0.00 | 55 | 1006.4 |
| 20260505223302 | 90 | 180 | 1.7 | 2.6 | 0.00 | 0.00 | 0.00 | 55 | 1006.1 |
| 20260505222733 | 90 | 270 | 1.7 | 3.5 | 0.00 | 0.00 | 0.00 | 54 | 1006.1 |
| 20260505222438 | 91 | 202 | 1.7 | 3.5 | 0.00 | 0.00 | 0.00 | 54 | 1005.9 |
| 20260505221714 | 91 | 225 | 0.9 | 3.5 | 0.00 | 0.00 | 0.00 | 55 | 1005.9 |
| 20260505221208 | 91 | 270 | 2.6 | 3.5 | 0.00 | 0.00 | 0.00 | 55 | 1005.9 |
| 20260505220702 | 91 | 202 | 1.7 | 5.2 | 0.00 | 0.00 | 0.00 | 55 | 1006.2 |
| 20260505220201 | 91 | 180 | 3.5 | 5.2 | 0.00 | 0.00 | 0.00 | 56 | 1006.2 |
| 20260505220131 | 91 | 270 | 1.7 | 3.5 | 0.00 | 0.00 | 0.00 | 57 | 1006.3 |
| 20260505215110 | 91 | 135 | 2.6 | 4.3 | 0.00 | 0.00 | 0.00 | 57 | 1006.3 |
| 20260505214605 | 91 | 248 | 2.6 | 4.3 | 0.00 | 0.00 | 0.00 | 57 | 1006.4 |
| 20260505214043 | 90 | 135 | 2.6 | 4.3 | 0.00 | 0.00 | 0.00 | 58 | 1006.4 |
| 20260505213527 | 90 | 248 | 1.7 | 4.3 | 0.00 | 0.00 | 0.00 | 58 | 1006.5 |
| 20260505212958 | 90 | 248 | 1.7 | 3.5 | 0.00 | 0.00 | 0.00 | 56 | 1006.5 |
| 20260505212442 | 90 | 248 | 2.6 | 3.5 | 0.00 | 0.00 | 0.00 | 56 | 1006.5 |
| 20260505211938 | 91 | 225 | 2.6 | 4.3 | 0.00 | 0.00 | 0.00 | 58 | 1006.7 |
| 20260505211424 | 90 | 270 | 2.6 | 4.3 | 0.00 | 0.00 | 0.00 | 59 | 1006.7 |
| 20260505210924 | 90 | 338 | 2.6 | 4.3 | 0.00 | 0.00 | 0.00 | 58 | 1006.7 |
| 20260505210342 | 90 | 202 | 2.6 | 4.3 | 0.00 | 0.00 | 0.00 | 58 | 1006.7 |
| 20260505205826 | 89 | 292 | 1.7 | 4.3 | 0.00 | 0.00 | 0.00 | 59 | 1006.9 |
| 20260505205257 | 90 | 202 | 2.6 | 3.5 | 0.00 | 0.00 | 0.00 | 58 | 1006.9 |
| 20260505205009 | 90 | 225 | 1.7 | 3.5 | 0.00 | 0.00 | 0.00 | 58 | 1007.2 |
| 20260505204230 | 91 | 270 | 2.6 | 6.1 | 0.00 | 0.00 | 0.00 | 57 | 1007.2 |
| 20260505203723 | 91 | 292 | 2.6 | 6.1 | 0.00 | 0.00 | 0.00 | 57 | 1007.2 |
| 20260505203210 | 91 | 225 | 3.5 | 4.3 | 0.00 | 0.00 | 0.00 | 56 | 1007.2 |
| 20260505202916 | 92 | 292 | 2.6 | 4.3 | 0.00 | 0.00 | 0.00 | 57 | 1007.2 |
| 20260505202139 | 91 | 225 | 1.7 | 4.3 | 0.00 | 0.00 | 0.00 | 58 | 1007.2 |
| 20260505201633 | 91 | 270 | 2.6 | 5.2 | 0.00 | 0.00 | 0.00 | 56 | 1007.2 |
| 20260505201351 | 91 | 270 | 3.5 | 5.2 | 0.00 | 0.00 | 0.00 | 55 | 1007.3 |
| 20260505200621 | 91 | 248 | 2.6 | 5.2 | 0.00 | 0.00 | 0.00 | 56 | 1007.3 |
| 20260505200111 | 91 | 270 | 3.5 | 5.2 | 0.00 | 0.00 | 0.00 | 55 | 1007.3 |
| 20260505195822 | 91 | 180 | 3.5 | 5.2 | 0.00 | 0.00 | 0.00 | 57 | 1007.4 |
| 20260505195031 | 91 | 225 | 2.6 | 5.2 | 0.00 | 0.00 | 0.00 | 57 | 1007.4 |
| 20260505194519 | 91 | 225 | 3.5 | 5.2 | 0.00 | 0.00 | 0.00 | 57 | 1007.4 |
| 20260505194017 | 90 | 292 | 2.6 | 4.3 | 0.00 | 0.00 | 0.00 | 57 | 1007.4 |
| 20260505193736 | 91 | 202 | 2.6 | 5.2 | 0.00 | 0.00 | 0.00 | 57 | 1007.4 |
| 20260505192957 | 90 | 112 | 3.5 | 5.2 | 0.00 | 0.00 | 0.00 | 59 | 1007.4 |
| 20260505192453 | 90 | 270 | 3.5 | 4.3 | 0.00 | 0.00 | 0.00 | 59 | 1007.4 |
| 20260505192203 | 89 | 248 | 3.5 | 4.3 | 0.00 | 0.00 | 0.00 | 59 | 1007.3 |
| 20260505191434 | 89 | 225 | 2.6 | 4.3 | 0.00 | 0.00 | 0.00 | 60 | 1007.3 |
| 20260505191149 | 88 | 202 | 2.6 | 4.3 | 0.00 | 0.00 | 0.00 | 60 | 1007.5 |
| 20260505190356 | 88 | 68 | 2.6 | 5.2 | 0.00 | 0.00 | 0.00 | 62 | 1007.5 |
| 20260505185840 | 87 | 270 | 3.5 | 5.2 | 0.00 | 0.00 | 0.00 | 63 | 1007.5 |
| 20260505185341 | 87 | 112 | 2.6 | 7.0 | 0.00 | 0.00 | 0.00 | 63 | 1007.5 |
| 20260505184759 | 85 | 180 | 3.5 | 7.0 | 0.00 | 0.00 | 0.00 | 64 | 1007.7 |
| 20260505184242 | 85 | 248 | 2.6 | 4.3 | 0.00 | 0.00 | 0.00 | 65 | 1007.7 |
| 20260505183713 | 85 | 202 | 2.6 | 4.3 | 0.00 | 0.00 | 0.00 | 64 | 1007.7 |
| 20260505183145 | 85 | 292 | 2.6 | 3.5 | 0.00 | 0.00 | 0.00 | 65 | 1007.6 |
| 20260505182631 | 84 | 292 | 2.6 | 4.3 | 0.00 | 0.00 | 0.00 | 66 | 1007.6 |
| 20260505182033 | 84 | 270 | 3.5 | 4.3 | 0.00 | 0.00 | 0.00 | 66 | 1007.8 |
| 20260505181531 | 85 | 180 | 3.5 | 4.3 | 0.00 | 0.00 | 0.00 | 65 | 1007.8 |
| 20260505181027 | 86 | 248 | 2.6 | 4.3 | 0.00 | 0.00 | 0.00 | 64 | 1007.6 |
| 20260505180513 | 87 | 248 | 1.7 | 3.5 | 0.00 | 0.00 | 0.00 | 64 | 1007.6 |
| 20260505180012 | 86 | 315 | 3.5 | 3.5 | 0.00 | 0.00 | 0.00 | 64 | 1007.6 |
| 20260505175459 | 87 | 225 | 2.6 | 3.5 | 0.00 | 0.00 | 0.00 | 63 | 1007.6 |
| 20260505175209 | 86 | 270 | 2.6 | 4.3 | 0.00 | 0.00 | 0.00 | 65 | 1007.6 |
| 20260505174920 | 85 | 270 | 2.6 | 5.2 | 0.00 | 0.00 | 0.00 | 67 | 1007.6 |
| 20260505174208 | 84 | 225 | 3.5 | 6.1 | 0.00 | 0.00 | 0.00 | 68 | 1007.6 |
| 20260505173656 | 84 | 225 | 3.5 | 6.1 | 0.00 | 0.00 | 0.00 | 66 | 1007.8 |
| 20260505172911 | 84 | 90 | 2.6 | 5.2 | 0.00 | 0.00 | 0.00 | 66 | 1007.8 |
| 20260505172405 | 85 | 180 | 3.5 | 5.2 | 0.00 | 0.00 | 0.00 | 65 | 1007.9 |
| 20260505171814 | 85 | 202 | 3.5 | 4.3 | 0.00 | 0.00 | 0.00 | 66 | 1007.9 |
| 20260505171644 | 83 | 270 | 2.6 | 4.3 | 0.00 | 0.00 | 0.00 | 68 | 1007.9 |
| 20260505171323 | 83 | 112 | 2.6 | 4.3 | 0.00 | 0.00 | 0.00 | 69 | 1007.9 |
| 20260505170238 | 83 | 292 | 3.5 | 4.3 | 0.00 | 0.00 | 0.00 | 68 | 1007.9 |
| 20260505170024 | 83 | 0 | 3.5 | 4.3 | 0.00 | 0.00 | 0.00 | 68 | 1007.8 |
| 20260505165218 | 83 | 270 | 2.6 | 6.1 | 0.00 | 0.00 | 0.00 | 68 | 1007.8 |
| 20260505164713 | 82 | 225 | 3.5 | 6.1 | 0.00 | 0.00 | 0.00 | 69 | 1007.9 |
| 20260505164151 | 82 | 270 | 3.5 | 5.2 | 0.00 | 0.00 | 0.00 | 69 | 1007.9 |
| 20260505163909 | 82 | 292 | 2.6 | 5.2 | 0.00 | 0.00 | 0.00 | 69 | 1007.9 |
| 20260505163155 | 82 | 158 | 1.7 | 5.2 | 0.00 | 0.00 | 0.00 | 70 | 1007.7 |
| 20260505162616 | 82 | 180 | 3.5 | 7.8 | 0.00 | 0.00 | 0.00 | 70 | 1007.7 |
| 20260505162101 | 82 | 270 | 3.5 | 7.8 | 0.00 | 0.00 | 0.00 | 69 | 1007.6 |
| 20260505161517 | 82 | 248 | 3.5 | 7.0 | 0.00 | 0.00 | 0.00 | 70 | 1007.6 |
| 20260505160947 | 81 | 270 | 4.3 | 7.0 | 0.00 | 0.00 | 0.00 | 70 | 1007.5 |
| 20260505160616 | 80 | 225 | 4.3 | 7.0 | 0.00 | 0.00 | 0.00 | 72 | 1007.3 |
| 20260505160444 | 81 | 338 | 2.6 | 6.1 | 0.00 | 0.00 | 0.00 | 71 | 1007.5 |
| 20260505160359 | 80 | 225 | 4.3 | 7.0 | 0.00 | 0.00 | 0.00 | 72 | 1007.3 |
| 20260505160151 | 80 | 225 | 4.3 | 7.0 | 0.00 | 0.00 | 0.00 | 72 | 1007.3 |
| 20260505152247 | 79 | 225 | 4.3 | 6.1 | 0.00 | 0.00 | 0.00 | 74 | 1007.6 |
| 20260505151747 | 78 | 270 | 3.5 | 7.0 | 0.00 | 0.00 | 0.00 | 76 | 1007.6 |
| 20260505151247 | 78 | 180 | 3.5 | 7.0 | 0.00 | 0.00 | 0.00 | 76 | 1007.6 |
| 20260505150739 | 78 | 180 | 4.3 | 7.0 | 0.00 | 0.00 | 0.00 | 76 | 1007.7 |
| 20260505150146 | 78 | 292 | 3.5 | 7.0 | 0.00 | 0.00 | 0.00 | 76 | 1007.7 |
| 20260505140154 | 74 | 225 | 2.6 | 5.2 | 0.00 | 0.00 | 0.00 | 81 | 1007.5 |
| 20260505130223 | 72 | 45 | 2.6 | 7.0 | 0.00 | 0.00 | 0.00 | 83 | 1007.5 |
| 20260505124853 | 71 | 270 | 3.5 | 5.2 | 0.00 | 0.00 | 0.00 | 84 | 1007.0 |
| 20260505124125 | 71 | 158 | 3.5 | 5.2 | 0.00 | 0.00 | 0.00 | 84 | 1007.0 |
| 20260505123556 | 71 | 158 | 3.5 | 5.2 | 0.00 | 0.00 | 0.00 | 84 | 1006.9 |
| 20260505123051 | 71 | 270 | 3.5 | 7.0 | 0.00 | 0.00 | 0.00 | 84 | 1006.9 |
| 20260505122542 | 71 | 158 | 3.5 | 7.0 | 0.00 | 0.00 | 0.00 | 84 | 1006.9 |
| 20260505122026 | 71 | 68 | 2.6 | 5.2 | 0.00 | 0.00 | 0.00 | 84 | 1006.9 |
| 20260505121523 | 71 | 202 | 2.6 | 4.3 | 0.00 | 0.00 | 0.00 | 84 | 1006.9 |
| 20260505121017 | 71 | 202 | 3.5 | 7.0 | 0.00 | 0.00 | 0.00 | 84 | 1006.9 |
| 20260505120508 | 71 | 202 | 4.3 | 7.0 | 0.00 | 0.00 | 0.00 | 84 | 1006.9 |
| 20260505115953 | 71 | 202 | 3.5 | 5.2 | 0.00 | 0.00 | 0.00 | 84 | 1006.9 |
| 20260505115449 | 71 | 225 | 3.5 | 5.2 | 0.00 | 0.00 | 0.00 | 84 | 1006.7 |
| 20260505115140 | 70 | 202 | 3.5 | 5.2 | 0.00 | 0.00 | 0.00 | 84 | 1006.7 |
| 20260505114904 | 70 | 292 | 2.6 | 5.2 | 0.00 | 0.00 | 0.00 | 84 | 1006.6 |
| 20260505113905 | 70 | 202 | 3.5 | 5.2 | 0.00 | 0.00 | 0.00 | 84 | 1006.6 |
| 20260505113336 | 70 | 68 | 1.7 | 4.3 | 0.00 | 0.00 | 0.00 | 84 | 1006.6 |
| 20260505112806 | 70 | 202 | 2.6 | 4.3 | 0.00 | 0.00 | 0.00 | 84 | 1006.6 |
| 20260505112238 | 70 | 225 | 3.5 | 4.3 | 0.00 | 0.00 | 0.00 | 84 | 1006.6 |
| 20260505111712 | 70 | 270 | 2.6 | 7.0 | 0.00 | 0.00 | 0.00 | 84 | 1006.6 |
| 20260505111210 | 70 | 225 | 3.5 | 7.0 | 0.00 | 0.00 | 0.00 | 84 | 1006.6 |
| 20260505110648 | 70 | 180 | 2.6 | 5.2 | 0.00 | 0.00 | 0.00 | 84 | 1006.4 |
| 20260505110144 | 70 | 270 | 3.5 | 4.3 | 0.00 | 0.00 | 0.00 | 83 | 1006.4 |
| 20260505101935 | 71 | 248 | 3.5 | 6.1 | 0.00 | 0.00 | 0.00 | 83 | 1006.7 |
| 20260505101405 | 71 | 270 | 3.5 | 6.1 | 0.00 | 0.00 | 0.00 | 83 | 1006.7 |
| 20260505100836 | 71 | 225 | 3.5 | 5.2 | 0.00 | 0.00 | 0.00 | 83 | 1006.7 |
| 20260505100307 | 71 | 202 | 3.5 | 5.2 | 0.00 | 0.00 | 0.00 | 83 | 1006.7 |
| 20260505095737 | 71 | 270 | 3.5 | 5.2 | 0.00 | 0.00 | 0.00 | 83 | 1006.7 |
| 20260505095448 | 71 | 202 | 4.3 | 7.8 | 0.00 | 0.00 | 0.00 | 83 | 1006.7 |
| 20260505094717 | 71 | 180 | 4.3 | 7.8 | 0.00 | 0.00 | 0.00 | 83 | 1006.8 |
| 20260505094419 | 71 | 225 | 3.5 | 5.2 | 0.00 | 0.00 | 0.00 | 83 | 1006.8 |
| 20260505093651 | 71 | 270 | 2.6 | 5.2 | 0.00 | 0.00 | 0.00 | 83 | 1006.8 |
| 20260505093149 | 71 | 270 | 3.5 | 5.2 | 0.00 | 0.00 | 0.00 | 83 | 1007.0 |
| 20260505092644 | 70 | 248 | 2.6 | 4.3 | 0.00 | 0.00 | 0.00 | 83 | 1007.0 |
| 20260505092131 | 70 | 68 | 2.6 | 5.2 | 0.00 | 0.00 | 0.00 | 83 | 1007.2 |
| 20260505091630 | 70 | 45 | 2.6 | 5.2 | 0.00 | 0.00 | 0.00 | 83 | 1007.2 |
| 20260505091101 | 70 | 225 | 4.3 | 6.1 | 0.00 | 0.00 | 0.00 | 83 | 1007.0 |
| 20260505090806 | 70 | 248 | 3.5 | 6.1 | 0.00 | 0.00 | 0.00 | 83 | 1007.0 |
| 20260505090042 | 70 | 315 | 4.3 | 6.1 | 0.00 | 0.00 | 0.00 | 83 | 1007.0 |
| 20260505085512 | 70 | 225 | 3.5 | 5.2 | 0.00 | 0.00 | 0.00 | 83 | 1007.0 |
| 20260505084944 | 70 | 225 | 3.5 | 6.1 | 0.00 | 0.00 | 0.00 | 83 | 1007.0 |
| 20260505084654 | 70 | 202 | 3.5 | 7.8 | 0.00 | 0.00 | 0.00 | 83 | 1007.0 |
| 20260505083928 | 70 | 270 | 5.2 | 7.8 | 0.00 | 0.00 | 0.00 | 83 | 1007.0 |
| 20260505083643 | 70 | 202 | 2.6 | 5.2 | 0.00 | 0.00 | 0.00 | 83 | 1007.0 |
| 20260505082900 | 70 | 202 | 4.3 | 5.2 | 0.00 | 0.00 | 0.00 | 83 | 1007.0 |
| 20260505082610 | 70 | 225 | 3.5 | 7.0 | 0.00 | 0.00 | 0.00 | 83 | 1007.0 |
| 20260505081842 | 70 | 248 | 5.2 | 7.0 | 0.00 | 0.00 | 0.00 | 83 | 1007.2 |
| 20260505081341 | 70 | 0 | 3.5 | 5.2 | 0.00 | 0.00 | 0.00 | 83 | 1007.2 |
| 20260505080836 | 70 | 180 | 3.5 | 5.2 | 0.00 | 0.00 | 0.00 | 83 | 1007.3 |
| 20260505080330 | 70 | 270 | 2.6 | 5.2 | 0.00 | 0.00 | 0.00 | 82 | 1007.3 |
| 20260505075822 | 71 | 225 | 3.5 | 7.8 | 0.00 | 0.00 | 0.00 | 82 | 1007.4 |
| 20260505075311 | 71 | 225 | 4.3 | 7.8 | 0.00 | 0.00 | 0.00 | 82 | 1007.4 |
| 20260505075030 | 71 | 90 | 2.6 | 5.2 | 0.00 | 0.00 | 0.00 | 82 | 1007.6 |
| 20260505074257 | 71 | 270 | 3.5 | 5.2 | 0.00 | 0.00 | 0.00 | 82 | 1007.6 |
| 20260505073747 | 71 | 112 | 3.5 | 6.1 | 0.00 | 0.00 | 0.00 | 82 | 1007.6 |
| 20260505073233 | 71 | 338 | 3.5 | 6.1 | 0.00 | 0.00 | 0.00 | 81 | 1007.9 |
| 20260505072728 | 71 | 338 | 3.5 | 6.1 | 0.00 | 0.00 | 0.00 | 81 | 1007.9 |
| 20260505072422 | 71 | 292 | 4.3 | 6.1 | 0.00 | 0.00 | 0.00 | 81 | 1008.0 |
| 20260505071923 | 71 | 202 | 3.5 | 5.2 | 0.00 | 0.00 | 0.00 | 81 | 1008.0 |
| 20260505071143 | 71 | 180 | 3.5 | 4.3 | 0.00 | 0.00 | 0.00 | 81 | 1008.1 |
| 20260505070629 | 71 | 202 | 2.6 | 4.3 | 0.00 | 0.00 | 0.00 | 81 | 1008.1 |
| 20260505070125 | 71 | 202 | 2.6 | 4.3 | 0.00 | 0.00 | 0.00 | 81 | 1008.1 |
| 20260505065554 | 71 | 270 | 3.5 | 4.3 | 0.00 | 0.00 | 0.00 | 80 | 1008.2 |
| 20260505065052 | 72 | 225 | 2.6 | 5.2 | 0.00 | 0.00 | 0.00 | 80 | 1008.2 |
| 20260505064542 | 72 | 180 | 3.5 | 7.0 | 0.00 | 0.00 | 0.00 | 80 | 1008.4 |
| 20260505064515 | 72 | 180 | 3.5 | 7.0 | 0.00 | 0.00 | 0.00 | 80 | 1008.4 |
| 20260505063523 | 72 | 248 | 3.5 | 4.3 | 0.00 | 0.00 | 0.00 | 79 | 1008.4 |
| 20260505062953 | 72 | 22 | 2.6 | 4.3 | 0.00 | 0.00 | 0.00 | 79 | 1008.4 |
| 20260505062423 | 72 | 202 | 2.6 | 5.2 | 0.00 | 0.00 | 0.00 | 79 | 1008.4 |
| 20260505061921 | 72 | 270 | 3.5 | 5.2 | 0.00 | 0.00 | 0.00 | 79 | 1008.4 |
| 20260505061410 | 72 | 248 | 2.6 | 5.2 | 0.00 | 0.00 | 0.00 | 79 | 1008.4 |
| 20260505060842 | 72 | 112 | 2.6 | 4.3 | 0.00 | 0.00 | 0.00 | 79 | 1008.4 |
| 20260505060259 | 72 | 270 | 3.5 | 4.3 | 0.00 | 0.00 | 0.00 | 79 | 1008.4 |
| 20260505055756 | 72 | 315 | 2.6 | 3.5 | 0.00 | 0.00 | 0.00 | 78 | 1008.5 |
| 20260505055251 | 72 | 158 | 2.6 | 7.0 | 0.00 | 0.00 | 0.00 | 78 | 1008.5 |
| 20260505055012 | 72 | 180 | 3.5 | 7.0 | 0.00 | 0.00 | 0.00 | 78 | 1008.5 |
| 20260505054507 | 72 | 292 | 3.5 | 5.2 | 0.00 | 0.00 | 0.00 | 78 | 1008.5 |
| 20260505053722 | 72 | 180 | 3.5 | 7.8 | 0.00 | 0.00 | 0.00 | 78 | 1008.5 |
| 20260505053217 | 72 | 225 | 3.5 | 7.8 | 0.00 | 0.00 | 0.00 | 78 | 1008.7 |
| 20260505052715 | 72 | 315 | 3.5 | 7.0 | 0.00 | 0.00 | 0.00 | 77 | 1008.7 |
| 20260505052144 | 72 | 292 | 2.6 | 5.2 | 0.00 | 0.00 | 0.00 | 77 | 1008.7 |
| 20260505051635 | 72 | 225 | 3.5 | 5.2 | 0.00 | 0.00 | 0.00 | 77 | 1008.7 |
| 20260505051119 | 73 | 202 | 2.6 | 3.5 | 0.00 | 0.00 | 0.00 | 77 | 1008.7 |
| 20260505050615 | 73 | 225 | 2.6 | 5.2 | 0.00 | 0.00 | 0.00 | 76 | 1008.7 |
| 20260505050111 | 73 | 180 | 3.5 | 7.8 | 0.00 | 0.00 | 0.00 | 76 | 1008.7 |
| 20260505041410 | 73 | 180 | 2.6 | 4.3 | 0.00 | 0.00 | 0.00 | 75 | 1008.9 |
| 20260505040904 | 73 | 202 | 3.5 | 5.2 | 0.00 | 0.00 | 0.00 | 75 | 1009.0 |
| 20260505040615 | 73 | 158 | 3.5 | 5.2 | 0.00 | 0.00 | 0.00 | 74 | 1009.0 |
| 20260505035842 | 74 | 45 | 2.6 | 4.3 | 0.00 | 0.00 | 0.00 | 74 | 1008.9 |
| 20260505035557 | 74 | 112 | 2.6 | 4.3 | 0.00 | 0.00 | 0.00 | 74 | 1008.9 |
| 20260505035031 | 74 | 180 | 3.5 | 7.8 | 0.00 | 0.00 | 0.00 | 74 | 1008.9 |
| 20260505034302 | 74 | 180 | 4.3 | 7.8 | 0.00 | 0.00 | 0.00 | 74 | 1008.9 |
| 20260505033753 | 74 | 112 | 4.3 | 7.8 | 0.00 | 0.00 | 0.00 | 74 | 1008.9 |
| 20260505033238 | 74 | 180 | 3.5 | 4.3 | 0.00 | 0.00 | 0.00 | 74 | 1009.0 |
| 20260505032731 | 74 | 270 | 2.6 | 5.2 | 0.00 | 0.00 | 0.00 | 74 | 1009.0 |
| 20260505032230 | 74 | 248 | 3.5 | 5.2 | 0.00 | 0.00 | 0.00 | 74 | 1009.0 |
| 20260505031718 | 74 | 158 | 3.5 | 4.3 | 0.00 | 0.00 | 0.00 | 73 | 1009.0 |
| 20260505031208 | 74 | 158 | 2.6 | 5.2 | 0.00 | 0.00 | 0.00 | 73 | 1009.0 |
| 20260505030658 | 74 | 180 | 2.6 | 5.2 | 0.00 | 0.00 | 0.00 | 73 | 1009.0 |
| 20260505030155 | 74 | 180 | 3.5 | 5.2 | 0.00 | 0.00 | 0.00 | 73 | 1009.0 |
| 20260505025645 | 74 | 112 | 2.6 | 5.2 | 0.00 | 0.00 | 0.00 | 73 | 1009.0 |
| 20260505025115 | 74 | 248 | 1.7 | 2.6 | 0.00 | 0.00 | 0.00 | 73 | 1009.0 |
| 20260505024602 | 74 | 0 | 2.6 | 2.6 | 0.00 | 0.00 | 0.00 | 73 | 1009.0 |
| 20260505024325 | 74 | 112 | 1.7 | 3.5 | 0.00 | 0.00 | 0.00 | 72 | 1009.0 |
| 20260505023551 | 74 | 0 | 2.6 | 6.1 | 0.00 | 0.00 | 0.00 | 72 | 1008.8 |
| 20260505023041 | 74 | 225 | 3.5 | 6.1 | 0.00 | 0.00 | 0.00 | 72 | 1008.8 |
| 20260505022527 | 74 | 112 | 3.5 | 4.3 | 0.00 | 0.00 | 0.00 | 72 | 1008.8 |
| 20260505022021 | 74 | 112 | 2.6 | 4.3 | 0.00 | 0.00 | 0.00 | 72 | 1008.8 |
| 20260505021518 | 74 | 180 | 3.5 | 4.3 | 0.00 | 0.00 | 0.00 | 72 | 1008.8 |
| 20260505021018 | 74 | 248 | 2.6 | 4.3 | 0.00 | 0.00 | 0.00 | 71 | 1008.8 |
| 20260505020439 | 75 | 135 | 2.6 | 4.3 | 0.00 | 0.00 | 0.00 | 71 | 1008.8 |
| 20260505015910 | 75 | 135 | 2.6 | 4.3 | 0.00 | 0.00 | 0.00 | 70 | 1008.9 |
| 20260505015341 | 75 | 135 | 2.6 | 4.3 | 0.00 | 0.00 | 0.00 | 70 | 1008.9 |
| 20260505014810 | 75 | 270 | 3.5 | 5.2 | 0.00 | 0.00 | 0.00 | 70 | 1008.8 |
| 20260505014257 | 75 | 112 | 3.5 | 5.2 | 0.00 | 0.00 | 0.00 | 69 | 1008.8 |
| 20260505013752 | 75 | 202 | 3.5 | 5.2 | 0.00 | 0.00 | 0.00 | 69 | 1008.8 |
| 20260505013249 | 75 | 202 | 2.6 | 3.5 | 0.00 | 0.00 | 0.00 | 69 | 1008.8 |
| 20260505012725 | 75 | 180 | 2.6 | 5.2 | 0.00 | 0.00 | 0.00 | 69 | 1008.8 |
| 20260505012223 | 76 | 225 | 2.6 | 5.2 | 0.00 | 0.00 | 0.00 | 69 | 1008.8 |
| 20260505011717 | 76 | 22 | 3.5 | 5.2 | 0.00 | 0.00 | 0.00 | 68 | 1008.8 |
| 20260505011213 | 76 | 225 | 3.5 | 7.0 | 0.00 | 0.00 | 0.00 | 68 | 1008.8 |
| 20260505010914 | 76 | 158 | 3.5 | 7.0 | 0.00 | 0.00 | 0.00 | 68 | 1008.6 |
| 20260505010149 | 76 | 158 | 3.5 | 4.3 | 0.00 | 0.00 | 0.00 | 67 | 1008.6 |
| 20260505005644 | 76 | 202 | 2.6 | 5.2 | 0.00 | 0.00 | 0.00 | 67 | 1008.7 |
| 20260505005139 | 76 | 292 | 3.5 | 9.6 | 0.00 | 0.00 | 0.00 | 66 | 1008.7 |
| 20260505004617 | 77 | 202 | 4.3 | 9.6 | 0.00 | 0.00 | 0.00 | 66 | 1008.7 |
| 20260505004115 | 77 | 225 | 3.5 | 5.2 | 0.00 | 0.00 | 0.00 | 66 | 1008.7 |
| 20260505003832 | 77 | 202 | 2.6 | 4.3 | 0.00 | 0.00 | 0.00 | 65 | 1008.8 |
| 20260505003040 | 77 | 158 | 3.5 | 4.3 | 0.00 | 0.00 | 0.00 | 65 | 1008.8 |
| 20260505002537 | 78 | 338 | 3.5 | 4.3 | 0.00 | 0.00 | 0.00 | 64 | 1008.8 |
| 20260505002027 | 78 | 68 | 2.6 | 4.3 | 0.00 | 0.00 | 0.00 | 64 | 1008.9 |
| 20260505001512 | 78 | 225 | 2.6 | 4.3 | 0.00 | 0.00 | 0.00 | 64 | 1008.9 |
| 20260505001008 | 78 | 180 | 3.5 | 7.0 | 0.00 | 0.00 | 0.00 | 63 | 1008.9 |
| 20260505000502 | 78 | 180 | 4.3 | 7.0 | 0.00 | 0.00 | 0.00 | 63 | 1008.9 |
| 20260504235941 | 79 | 90 | 3.5 | 7.8 | 0.00 | 0.00 | 0.00 | 62 | 1008.9 |
| 20260504235425 | 79 | 270 | 5.2 | 9.6 | 0.00 | 0.00 | 0.00 | 62 | 1008.9 |
| 20260504235048 | 79 | 180 | 4.3 | 7.0 | 0.00 | 0.00 | 0.00 | 61 | 1009.0 |
| 20260504235034 | 79 | 0 | 5.2 | 9.6 | 0.00 | 0.00 | 0.00 | 62 | 1008.9 |
| 20260504234031 | 79 | 135 | 5.2 | 8.7 | 0.00 | 0.00 | 0.00 | 61 | 1009.1 |
| 20260504234018 | 79 | 112 | 4.3 | 7.0 | 0.00 | 0.00 | 0.00 | 61 | 1009.0 |
| 20260504233011 | 79 | 202 | 5.2 | 8.7 | 0.00 | 0.00 | 0.00 | 61 | 1009.1 |
| 20260504232514 | 79 | 202 | 3.5 | 7.0 | 0.00 | 0.00 | 0.00 | 61 | 1009.2 |
| 20260504231710 | 80 | 202 | 3.5 | 9.6 | 0.00 | 0.00 | 0.00 | 60 | 1009.2 |
| 20260504231141 | 80 | 270 | 4.3 | 9.6 | 0.00 | 0.00 | 0.00 | 60 | 1009.3 |